CW7054 Weather Reports


Display with metric or nautical units.
time (UTC)temp
F
wind
direction
speed
MPH
gust
MPH
rain 1hr
in
rain 24hr
in
rain mn
in
humidity
%
barometer
mb
20260509131543 55 182 1.0 5.0 0.00 0.00 0.00 82 1013.1
20260509130047 55 188 0.0 8.0 0.00 0.00 0.00 81 1013.0
20260509124550 55 189 0.0 4.0 0.00 0.00 0.00 82 1012.9
20260509123042 55 180 0.0 5.0 0.00 0.00 0.00 83 1013.1
20260509121551 55 211 0.0 8.0 0.00 0.00 0.00 84 1013.1
20260509120042 54 194 0.0 5.0 0.00 0.00 0.00 87 1013.1
20260509114552 54 159 0.0 6.0 0.00 0.00 0.00 88 1013.2
20260509113033 53 175 0.0 3.0 0.00 0.00 0.00 89 1013.1
20260509111534 52 176 0.0 4.0 0.00 0.00 0.00 90 1013.2
20260509110032 52 187 0.0 2.0 0.00 0.00 0.00 90 1013.1
20260509104532 52 188 0.0 1.0 0.00 0.00 0.00 90 1012.9
20260509103031 52 188 0.0 0.0 0.00 0.00 0.00 90 1013.0
20260509101531 52 188 0.0 1.0 0.00 0.00 0.00 90 1012.6
20260509100131 52 188 0.0 0.0 0.00 0.00 0.00 90 1012.6
20260509094533 52 188 0.0 3.0 0.00 0.00 0.00 90 1012.7
20260509093028 52 189 0.0 1.0 0.00 0.00 0.00 90 1012.5
20260509091526 52 189 0.0 2.0 0.00 0.00 0.00 90 1012.5
20260509090047 51 190 0.0 1.0 0.00 0.00 0.00 89 1012.6
20260509084527 51 190 0.0 5.0 0.00 0.00 0.00 89 1012.7
20260509083041 51 190 0.0 4.0 0.00 0.00 0.00 89 1012.5
20260509081527 51 191 0.0 3.0 0.00 0.00 0.00 89 1012.6
20260509080020 51 191 0.0 2.0 0.00 0.00 0.00 88 1012.8
20260509074530 52 191 0.0 1.0 0.00 0.00 0.00 88 1012.6
20260509073020 52 191 0.0 0.0 0.00 0.00 0.00 87 1012.7
20260509071521 52 191 0.0 2.0 0.00 0.00 0.00 87 1012.8
20260509070016 52 190 0.0 0.0 0.00 0.00 0.00 87 1013.1
20260509064514 52 191 0.0 2.0 0.00 0.00 0.00 86 1012.8
20260509063012 52 191 0.0 1.0 0.00 0.00 0.00 86 1013.2
20260509061511 52 191 0.0 3.0 0.00 0.00 0.00 85 1013.1
20260509060014 52 192 0.0 3.0 0.00 0.00 0.00 85 1013.1
20260509054509 52 192 0.0 2.0 0.00 0.00 0.00 84 1013.1
20260509053017 52 192 0.0 2.0 0.00 0.00 0.00 84 1013.1
20260509051508 53 192 0.0 0.0 0.00 0.00 0.00 83 1013.1
20260509050015 53 192 0.0 0.0 0.00 0.00 0.00 82 1012.9
20260509044504 53 192 0.0 0.0 0.00 0.00 0.00 82 1012.9
20260509043005 53 192 0.0 3.0 0.00 0.00 0.00 81 1013.2
20260509041603 53 192 0.0 2.0 0.00 0.00 0.00 81 1013.2
20260509034607 53 193 0.0 3.0 0.00 0.00 0.00 81 1013.3
20260509033109 53 194 0.0 4.0 0.00 0.00 0.00 81 1013.2
20260509031557 53 248 0.0 3.0 0.00 0.00 0.00 82 1013.3
20260509030057 53 253 0.0 3.0 0.00 0.00 0.00 82 1013.3
20260509024604 53 263 0.0 6.0 0.00 0.00 0.00 82 1013.3
20260509023056 52 234 0.0 3.0 0.00 0.00 0.00 83 1013.2
20260509021555 52 248 0.0 3.0 0.00 0.00 0.00 83 1013.2
20260509020056 52 249 1.0 4.0 0.00 0.00 0.00 83 1013.2
20260509014553 52 257 0.0 7.0 0.00 0.00 0.00 83 1013.1
20260509013055 52 197 0.0 2.0 0.00 0.00 0.00 82 1012.8
20260509011601 52 195 1.0 7.0 0.00 0.00 0.00 82 1012.7
20260509010051 52 263 0.0 7.0 0.00 0.00 0.00 81 1012.6
20260509004555 52 248 0.0 4.0 0.00 0.00 0.00 80 1012.4
20260509003046 53 272 0.0 8.0 0.00 0.00 0.00 78 1012.1
20260509001544 53 229 0.0 5.0 0.00 0.00 0.00 77 1011.9
20260509000045 53 244 1.0 7.0 0.00 0.00 0.00 75 1011.7
20260508234539 54 168 0.0 7.0 0.00 0.00 0.00 74 1011.5
20260508233039 54 257 1.0 8.0 0.00 0.00 0.00 74 1011.4
20260508231545 55 257 2.0 9.0 0.00 0.00 0.00 71 1011.3
20260508230037 55 185 3.0 8.0 0.00 0.00 0.00 69 1011.2
20260508224558 55 225 2.0 13.0 0.00 0.00 0.00 67 1011.0
20260508223035 56 211 1.0 9.0 0.00 0.00 0.00 67 1010.9
20260508221541 56 269 2.0 12.0 0.00 0.00 0.00 66 1011.0
20260508220035 56 254 2.0 10.0 0.00 0.00 0.00 65 1011.2
20260508214538 56 288 2.0 11.0 0.00 0.00 0.00 66 1011.1
20260508213035 57 180 1.0 7.0 0.00 0.00 0.00 65 1011.0
20260508211530 58 230 1.0 6.0 0.00 0.00 0.00 63 1011.0
20260508210031 58 258 3.0 9.0 0.00 0.00 0.00 65 1010.8
20260508204529 58 263 1.0 8.0 0.00 0.00 0.00 66 1010.7
20260508203029 57 274 2.0 8.0 0.00 0.00 0.00 67 1010.7
20260508201528 58 241 4.0 12.0 0.00 0.00 0.00 64 1010.8
20260508200041 60 184 3.0 11.0 0.00 0.00 0.00 61 1010.6
20260508194527 60 251 3.0 10.0 0.00 0.00 0.00 60 1010.3
20260508193028 59 264 2.0 9.0 0.00 0.00 0.00 64 1010.2
20260508191528 59 253 3.0 12.0 0.00 0.00 0.00 64 1010.3
20260508190026 58 188 1.0 11.0 0.00 0.00 0.00 67 1010.4
20260508184528 57 252 2.0 8.0 0.00 0.00 0.00 65 1010.3
20260508183025 57 277 2.0 8.0 0.00 0.00 0.00 65 1010.5
20260508181523 58 212 2.0 8.0 0.00 0.00 0.00 66 1010.6
20260508180024 58 187 2.0 11.0 0.00 0.00 0.00 60 1010.6
20260508174526 59 183 3.0 14.0 0.00 0.00 0.00 61 1010.6
20260508173026 59 164 2.0 10.0 0.00 0.00 0.00 66 1010.6
20260508171532 59 168 2.0 9.0 0.00 0.00 0.00 62 1010.7
20260508170021 59 180 2.0 9.0 0.00 0.00 0.00 63 1010.7
20260508164523 59 193 3.0 9.0 0.00 0.00 0.00 65 1010.7
20260508163025 58 191 3.0 10.0 0.00 0.00 0.00 66 1010.8
20260508161531 58 246 3.0 10.0 0.00 0.00 0.00 67 1010.9
20260508160021 58 232 2.0 6.0 0.00 0.00 0.00 68 1011.0
20260508154520 58 188 3.0 10.0 0.00 0.00 0.00 68 1011.2
20260508153019 59 163 2.0 8.0 0.00 0.00 0.00 71 1011.1
20260508151518 60 176 3.0 12.0 0.00 0.00 0.00 63 1011.0
20260508150020 60 248 1.0 7.0 0.00 0.00 0.00 51 1011.0
20260508144528 59 286 2.0 7.0 0.00 0.01 0.00 55 1011.1
20260508143024 58 329 1.0 9.0 0.00 0.01 0.00 54 1011.1
20260508141514 58 304 3.0 8.0 0.00 0.01 0.00 58 1011.3
20260508140006 57 285 2.0 5.0 0.00 0.01 0.00 59 1011.3
20260508134504 57 355 2.0 10.0 0.00 0.02 0.00 58 1011.5
20260508133100 56 262 3.0 11.0 0.00 0.02 0.00 63 1011.5